Aérodrome :
LOGIN :

S'inscrire | Disclaimer

   EN    FR    IT 

 










Légende :    VFR   VFR Marginal   IFR   IFR Intensif   IFR Très Intensif
Visi : 
Plafond : 
>= 8 km
>= 3000ft
5 à 8 km
1000 à 3000 ft
1500m à 5 km
500 à 1000 ft
800 à 1500m
200 à 500 ft
< 800m
< 200 ft
Symboles :   Orages  Brouillard  Fortes neiges  Fortes précipitations  Vent > 20 kt
SIGMETs :   Divers  Orages  Givrage  Turbulence  Onde Orograph.  Cendres Volcan.







- Altitude de l'aérodrome : 49 ft
- Code IATA : SEN
- Voir les cartes d'approche


EGMC - Southend

DERNIER METAR :
  • 201420Z 22006KT 170V250 CAVOK 17/09 Q1030

METARs EXPIRÉS :
  • 201350Z 23008KT CAVOK 17/09 Q1030
  • 201320Z 25007KT CAVOK 17/09 Q1030
  • 201250Z 23007KT CAVOK 17/09 Q1030
  • 201220Z 21007KT CAVOK 15/08 Q1031
  • 201150Z 20007KT 170V240 CAVOK 15/08 Q1031
  • 201120Z 21006KT 170V240 CAVOK 15/08 Q1032

TAF TAF EGMC
Valide du 20 à 12h jusqu'au 20 à 21h UTC


201059Z 2012/2021 28003KT CAVOK
PROB30 2018/2021 8000
Pas de NOTAMs connus pour ce terrain.



MET'MAP, la Météo Aéronautique d'un coup d'oeil ! - Copyright ORBIFLY Décembre 2007 - Disclaimer

ORBIFLY MET'MAP TEAM :

Programmation & Développement : Alexandra Zaïnal
Conception & Développement : Baudouin d'Aumeries
Co-Programmation & Développement : Marc-Olivier Méhu
Soutien technique & logistique : Manuel Goepfert

Contact : metmap@orbifly.com




SOURCES & CREDITS :

   NOAA